When you browse on this site, cookies collect data to enhance your experience and personalize the content and advertising you see.
Visit our Privacy Policy to learn more. By continuing to use the site, you agree to this use of cookies and data.
  • In Czech Republic
  • List of Countries
  • For 7 days
  • Water Temperature
  • Satellite Maps
  • Weather Map
  • Weather Widgets
  • user-avatar
    Login

    Hourly Weather Jalalabad

    Today, 24 July, Wednesday

    Time Temperature Precipitation Wind Pressure Humidity
    00:00 +38°C° 0 mm 2 mps 704 mmHg 43%
    01:00 +38°C° 0 mm 2 mps 704 mmHg 45%
    02:00 +37°C° 0 mm 2 mps 704 mmHg 47%
    03:00 +37°C° 0 mm 2 mps 703 mmHg 48%
    04:00 +35°C° 0 mm 1 mps 703 mmHg 50%
    05:00 +35°C° 0 mm 1 mps 703 mmHg 52%
    06:00 +35°C° 0 mm 1 mps 703 mmHg 50%
    07:00 +36°C° 0 mm 1 mps 704 mmHg 47%
    08:00 +36°C° 0 mm 1 mps 704 mmHg 44%
    09:00 +38°C° 0 mm 2 mps 704 mmHg 42%
    10:00 +39°C° 0 mm 2 mps 704 mmHg 39%
    11:00 +40°C° 0 mm 2 mps 703 mmHg 36%
    12:00 +41°C° 0 mm 2 mps 703 mmHg 33%
    13:00 +43°C° 0 mm 3 mps 703 mmHg 30%
    14:00 +44°C° 0 mm 3 mps 702 mmHg 27%
    15:00 +44°C° 0 mm 3 mps 702 mmHg 27%
    16:00 +44°C° 0 mm 3 mps 701 mmHg 26%
    17:00 +45°C° 0 mm 3 mps 701 mmHg 25%
    18:00 +44°C° 0 mm 3 mps 701 mmHg 26%
    19:00 +43°C° 0 mm 3 mps 702 mmHg 28%
    20:00 +42°C° 0 mm 2 mps 702 mmHg 29%
    21:00 +41°C° 0 mm 2 mps 702 mmHg 31%
    22:00 +40°C° 0 mm 2 mps 702 mmHg 34%
    23:00 +40°C° 0 mm 2 mps 702 mmHg 36%

    Tomorrow, 25 July, Thursday

    Time Temperature Precipitation Wind Pressure Humidity
    00:00 +39°C° 0 mm 2 mps 702 mmHg 38%
    01:00 +37°C° 0 mm 1 mps 702 mmHg 40%
    02:00 +37°C° 0 mm 1 mps 702 mmHg 42%
    03:00 +36°C° 0 mm 1 mps 702 mmHg 44%
    04:00 +36°C° 0 mm 1 mps 702 mmHg 46%
    05:00 +33°C° 0 mm 0 mps 702 mmHg 48%
    06:00 +36°C° 0 mm 1 mps 702 mmHg 45%
    07:00 +36°C° 0 mm 1 mps 702 mmHg 43%
    08:00 +37°C° 0 mm 1 mps 702 mmHg 40%
    09:00 +39°C° 0 mm 1 mps 702 mmHg 37%
    10:00 +40°C° 0 mm 2 mps 702 mmHg 34%
    11:00 +41°C° 0 mm 2 mps 702 mmHg 31%
    12:00 +42°C° 0 mm 2 mps 702 mmHg 28%
    13:00 +44°C° 0 mm 3 mps 702 mmHg 25%
    14:00 +45°C° 0 mm 3 mps 701 mmHg 22%
    15:00 +45°C° 0 mm 3 mps 701 mmHg 21%
    16:00 +47°C° 0 mm 4 mps 700 mmHg 21%
    17:00 +47°C° 0 mm 4 mps 700 mmHg 20%
    18:00 +45°C° 0 mm 4 mps 700 mmHg 22%
    19:00 +44°C° 0 mm 3 mps 700 mmHg 24%
    20:00 +43°C° 0 mm 3 mps 701 mmHg 26%
    21:00 +42°C° 0 mm 3 mps 701 mmHg 28%
    22:00 +41°C° 0 mm 2 mps 701 mmHg 31%
    23:00 +40°C° 0 mm 2 mps 701 mmHg 33%

    Day after tomorrow, 26 July, Friday

    Time Temperature Precipitation Wind Pressure Humidity
    00:00 +39°C° 0 mm 2 mps 701 mmHg 36%
    01:00 +39°C° 0 mm 2 mps 701 mmHg 40%
    02:00 +37°C° 0 mm 1 mps 701 mmHg 43%
    03:00 +36°C° 0.6 mm 3 mps 701 mmHg 51%
    04:00 +34°C° 0.6 mm 4 mps 701 mmHg 59%
    05:00 +32°C° 0.6 mm 5 mps 701 mmHg 67%
    06:00 +32°C° 0.2 mm 4 mps 701 mmHg 67%
    07:00 +31°C° 0.2 mm 3 mps 702 mmHg 68%
    08:00 +32°C° 0.2 mm 2 mps 702 mmHg 68%
    09:00 +34°C° 0 mm 2 mps 702 mmHg 64%
    10:00 +35°C° 0 mm 2 mps 702 mmHg 60%
    11:00 +36°C° 0 mm 3 mps 702 mmHg 55%
    12:00 +36°C° 0 mm 4 mps 702 mmHg 53%
    13:00 +37°C° 0 mm 4 mps 702 mmHg 50%
    14:00 +39°C° 0 mm 5 mps 702 mmHg 47%
    15:00 +39°C° 0.1 mm 6 mps 701 mmHg 49%
    16:00 +38°C° 0.1 mm 6 mps 701 mmHg 51%
    17:00 +38°C° 0.1 mm 6 mps 701 mmHg 53%
    18:00 +36°C° 0.3 mm 5 mps 701 mmHg 57%
    19:00 +35°C° 0.3 mm 4 mps 702 mmHg 61%
    20:00 +34°C° 0.3 mm 3 mps 702 mmHg 65%
    21:00 +33°C° 0.2 mm 3 mps 702 mmHg 67%
    22:00 +33°C° 0.2 mm 3 mps 702 mmHg 69%
    23:00 +31°C° 0.2 mm 3 mps 703 mmHg 71%

    27 July, Saturday

    Time Temperature Precipitation Wind Pressure Humidity
    00:00 +31°C° 0.3 mm 2 mps 703 mmHg 71%
    01:00 +31°C° 0.3 mm 2 mps 702 mmHg 72%
    02:00 +31°C° 0.3 mm 1 mps 702 mmHg 72%
    03:00 +30°C° 0.5 mm 1 mps 702 mmHg 74%
    04:00 +30°C° 0.5 mm 1 mps 702 mmHg 75%
    05:00 +30°C° 0.5 mm 1 mps 702 mmHg 77%
    06:00 +30°C° 0.2 mm 1 mps 702 mmHg 75%
    07:00 +30°C° 0.2 mm 1 mps 702 mmHg 73%
    08:00 +30°C° 0.2 mm 1 mps 703 mmHg 71%
    09:00 +32°C° 0 mm 2 mps 703 mmHg 65%
    10:00 +34°C° 0 mm 2 mps 703 mmHg 60%
    11:00 +35°C° 0 mm 3 mps 703 mmHg 54%
    12:00 +36°C° 0 mm 3 mps 702 mmHg 52%
    13:00 +37°C° 0 mm 4 mps 702 mmHg 49%
    14:00 +37°C° 0 mm 5 mps 702 mmHg 47%
    15:00 +37°C° 0 mm 5 mps 702 mmHg 47%
    16:00 +37°C° 0 mm 5 mps 701 mmHg 48%
    17:00 +37°C° 0 mm 5 mps 701 mmHg 49%
    18:00 +36°C° 0.1 mm 5 mps 702 mmHg 53%
    19:00 +35°C° 0.1 mm 4 mps 702 mmHg 57%
    20:00 +34°C° 0.1 mm 4 mps 702 mmHg 61%
    21:00 +34°C° 0.1 mm 3 mps 703 mmHg 62%
    22:00 +33°C° 0.1 mm 3 mps 703 mmHg 63%
    23:00 +32°C° 0.1 mm 2 mps 703 mmHg 64%

    28 July, Sunday

    Time Temperature Precipitation Wind Pressure Humidity
    00:00 +32°C° 0.2 mm 2 mps 703 mmHg 65%
    01:00 +32°C° 0.2 mm 1 mps 703 mmHg 66%
    02:00 +31°C° 0.2 mm 1 mps 703 mmHg 67%
    03:00 +31°C° 0.5 mm 1 mps 703 mmHg 68%
    04:00 +31°C° 0.5 mm 1 mps 703 mmHg 69%
    05:00 +28°C° 0.5 mm 0 mps 703 mmHg 70%
    06:00 +31°C° 0.2 mm 1 mps 703 mmHg 66%
    07:00 +32°C° 0.2 mm 1 mps 704 mmHg 63%
    08:00 +32°C° 0.2 mm 1 mps 704 mmHg 59%
    09:00 +33°C° 0 mm 1 mps 704 mmHg 54%
    10:00 +35°C° 0 mm 1 mps 704 mmHg 50%
    11:00 +37°C° 0 mm 2 mps 704 mmHg 45%
    12:00 +38°C° 0 mm 3 mps 704 mmHg 42%
    13:00 +40°C° 0 mm 4 mps 704 mmHg 39%
    14:00 +41°C° 0 mm 4 mps 703 mmHg 36%
    15:00 +40°C° 0 mm 5 mps 703 mmHg 38%
    16:00 +40°C° 0 mm 6 mps 703 mmHg 40%
    17:00 +40°C° 0 mm 7 mps 703 mmHg 41%
    18:00 +39°C° 0 mm 6 mps 703 mmHg 45%
    19:00 +38°C° 0 mm 6 mps 703 mmHg 49%
    20:00 +36°C° 0 mm 5 mps 704 mmHg 53%
    21:00 +35°C° 0.1 mm 4 mps 704 mmHg 55%
    22:00 +35°C° 0.1 mm 3 mps 704 mmHg 58%
    23:00 +34°C° 0.1 mm 2 mps 705 mmHg 60%

    29 July, Monday

    Time Temperature Precipitation Wind Pressure Humidity
    00:00 +34°C° 0.4 mm 2 mps 705 mmHg 62%
    01:00 +32°C° 0.4 mm 1 mps 705 mmHg 63%
    02:00 +32°C° 0.4 mm 1 mps 704 mmHg 65%
    03:00 +32°C° 0.4 mm 1 mps 705 mmHg 66%
    04:00 +32°C° 0.4 mm 1 mps 705 mmHg 67%
    05:00 +29°C° 0.4 mm 0 mps 705 mmHg 68%
    06:00 +32°C° 0.2 mm 1 mps 705 mmHg 66%
    07:00 +32°C° 0.2 mm 1 mps 705 mmHg 63%
    08:00 +33°C° 0.2 mm 1 mps 705 mmHg 61%
    09:00 +34°C° 0.1 mm 1 mps 705 mmHg 56%
    10:00 +35°C° 0.1 mm 1 mps 705 mmHg 51%
    11:00 +37°C° 0.1 mm 2 mps 705 mmHg 46%
    12:00 +38°C° 0 mm 3 mps 705 mmHg 43%
    13:00 +39°C° 0 mm 3 mps 705 mmHg 39%
    14:00 +41°C° 0 mm 4 mps 705 mmHg 36%
    15:00 +41°C° 0 mm 4 mps 704 mmHg 36%
    16:00 +41°C° 0 mm 5 mps 704 mmHg 36%
    17:00 +41°C° 0 mm 5 mps 704 mmHg 37%
    18:00 +40°C° 0 mm 5 mps 704 mmHg 39%
    19:00 +38°C° 0 mm 4 mps 704 mmHg 42%
    20:00 +38°C° 0 mm 4 mps 704 mmHg 45%
    21:00 +37°C° 0 mm 3 mps 705 mmHg 47%
    22:00 +37°C° 0 mm 3 mps 705 mmHg 49%
    23:00 +36°C° 0 mm 2 mps 705 mmHg 51%
    Show more